[[{"header":{"parameterUnit":"m.s-1","parameterCategory":1,"la1":30.2991,"la2":30.254,"lo1":-89.0895,"lo2":-89.0444,"dy":0.0017,"dx":0.0017,"nx":28,"ny":28,"refTime":"2025-11-17T09:00:00:Z","depth":0,"parameterNumber":2,"parameterNumberName":"U-component_of_WINDS"},"data":[0,0,0,0,0,0,0,0,0,0,0,0,0,0,0,0,0,0,0,0,0,0,0,0,0,0,0,0,0,0,0,0,0,0,0,0,0,0,0,0,0,0,0,0,0,0,0,0,0,0,0,0,0,0,0,0,0,0,0.2305,0.2306,0,0.2404,0.2405,0.2406,0.241,0.2409,0.2408,0.2407,0.2511,0.2515,0.2519,0,0,0,0,0,0,0,0,0,0,0,0,0,0.2123,0.2126,0.2305,0.2306,0.2308,0.2404,0.2405,0.2407,0.241,0.2409,0.2407,0.2406,0.251,0.2515,0.2519,0,0,0,0,0,0,0,0,0,0,0,0,0,0.221,0.2127,0.2305,0.2321,0.2323,0.2404,0.2405,0.2407,0.2411,0.2409,0.2407,0.2405,0.2508,0.2514,0.252,0.2592,0,0,0.2538,0.254,0,0,0,0,0,0,0,0,0.2205,0.2217,0.2317,0.232,0.2323,0.2393,0.2379,0.2469,0.2411,0.2378,0.2407,0.2404,0.2474,0.2482,0.2505,0.2597,0.2601,0.2538,0.2542,0.2544,0.2546,0,0,0,0,0,0,0,0.2199,0.2213,0.2344,0.2319,0.2322,0.2324,0.2335,0.2396,0.2435,0.238,0.2381,0.2392,0.2475,0.2499,0.2507,0.2603,0.2538,0.2543,0.2547,0.2549,0.2761,0.2763,0,0,0,0,0,0,0.2189,0.2207,0.2341,0.2347,0.2258,0.2329,0.2341,0.2372,0.2434,0.2441,0.2394,0.2392,0.249,0.25,0.2511,0.2601,0.2544,0.255,0.2553,0.2759,0.2761,0.2764,0,0,0,0,0,0,0.2185,0.2201,0.2337,0.2278,0.2295,0.2334,0.237,0.2375,0.24,0.2444,0.2451,0.2412,0.2489,0.2503,0.2572,0.2605,0.2552,0.2558,0.2756,0.276,0.2762,0.278,0,0,0,0,0,0,0.218,0.22,0.2227,0.2278,0.2298,0.2396,0.2371,0.2378,0.2409,0.2408,0.2462,0.247,0.2489,0.2563,0.2578,0.2612,0.2562,0.2754,0.2758,0.2761,0.2777,0.2784,0.2789,0,0,0,0,0,0.2174,0.2228,0.2228,0.2244,0.2333,0.2397,0.2409,0.2429,0.2412,0.244,0.2469,0.2468,0.2598,0.257,0.2587,0.2623,0.2752,0.2757,0.2761,0.2774,0.2782,0.2789,0,0,0,0,0,0,0.2181,0.2235,0.2236,0.2308,0.2348,0.2398,0.2434,0.2436,0.2483,0.248,0.2503,0.2515,0.2585,0.261,0.2578,0.2697,0.2673,0.2681,0.2677,0.2686,0.2692,0.2685,0.2567,0,0,0,0,0,0.2191,0.2238,0.2283,0.2343,0.2363,0.2395,0.2424,0.2435,0.2478,0.2495,0.2529,0.2571,0.2622,0.2655,0.2704,0.278,0.2793,0.2813,0.2819,0.2824,0.2832,0.2876,0.2886,0.2779,0.2779,0.2779,0,0,0.2212,0.2247,0.2276,0.2345,0.2377,0.2427,0.2409,0.2462,0.25,0.2504,0.2571,0.2597,0.2646,0.272,0.2754,0.2744,0.2864,0.283,0.2834,0.2839,0.2882,0.2892,0.2901,0.2782,0.2782,0.2781,0,0,0.2276,0.2307,0.2361,0.2393,0.2442,0.2463,0.2476,0.2525,0.2543,0.2611,0.2615,0.266,0.2747,0.2782,0.2811,0.2889,0.2891,0.2904,0.2937,0.298,0.2988,0.2996,0.3026,0.3036,0.2911,0.2911,0.2911,0,0.2297,0.2371,0.2389,0.2442,0.2473,0.2477,0.2533,0.2564,0.2627,0.2649,0.2636,0.2745,0.2778,0.286,0.2879,0.2902,0.2919,0.2899,0.2985,0.2993,0.3001,0.303,0.304,0.2912,0.2912,0.2912,0.2912,0,0.2395,0.2446,0.2484,0.2543,0.2578,0.2633,0.266,0.2693,0.2702,0.2725,0.2795,0.2834,0.2892,0.2912,0.2921,0.2997,0.2989,0.298,0.2958,0.3012,0.304,0.3051,0.2914,0.2914,0.2913,0.2913,0,0,0.2468,0.2536,0.255,0.2578,0.2631,0.2672,0.2727,0.2782,0.2812,0.2854,0.2902,0.2975,0.2968,0.3001,0.3014,0.3051,0.3112,0.3038,0.304,0.3052,0.3201,0.3208,0.3221,0.3113,0.3115,0.3117,0.3197,0,0.254,0.2637,0.2654,0.2739,0.2788,0.2793,0.2841,0.288,0.2902,0.2948,0.2973,0.3025,0.301,0.3031,0.3068,0.3097,0.3143,0.3091,0.316,0.3162,0.315,0.3235,0.3243,0.3317,0.3208,0.321,0.3211,0,0.2637,0.2682,0.2771,0.2819,0.284,0.2883,0.2936,0.2979,0.3024,0.3038,0.3074,0.3083,0.3142,0.3115,0.3197,0.3162,0.3191,0.321,0.3213,0.3222,0.3191,0.3248,0.334,0.3352,0.3228,0.3226,0.3225,0,0.2684,0.2766,0.2831,0.2854,0.2911,0.2942,0.2967,0.301,0.3042,0.3089,0.311,0.3163,0.3193,0.3234,0.3257,0.3235,0.3339,0.3313,0.3354,0.3354,0.3378,0.3376,0.3478,0.3393,0.3392,0.3392,0.3392,0,0.2764,0.2819,0.2853,0.2893,0.2955,0.2975,0.3037,0.3062,0.31,0.3146,0.3153,0.3197,0.3224,0.3272,0.329,0.3357,0.337,0.3384,0.3389,0.3385,0.3383,0.3406,0.3402,0.3395,0.3395,0.3394,0.3393,0,0.2827,0.2852,0.2923,0.2971,0.2985,0.3029,0.3071,0.3111,0.3133,0.3191,0.3206,0.3242,0.3298,0.3325,0.3395,0.3408,0.3484,0.3485,0.3469,0.3472,0.3512,0.3508,0.3633,0.3652,0.3552,0.3553,0.3553,0,0.2878,0.292,0.2973,0.3004,0.303,0.3079,0.3112,0.3133,0.3168,0.3222,0.3256,0.3313,0.3359,0.345,0.3483,0.3537,0.354,0.358,0.3549,0.3544,0.3544,0.3542,0.3547,0.3587,0.3588,0.3589,0.3589,0,0.2965,0.2975,0.3022,0.3073,0.3112,0.3154,0.3195,0.322,0.3248,0.3287,0.3344,0.338,0.3452,0.3509,0.3565,0.3593,0.3597,0.3598,0.3611,0.3609,0.3599,0.3607,0.3487,0.3596,0.3595,0.3595,0.3595,0.3594,0.3026,0.3064,0.3107,0.3159,0.3192,0.323,0.327,0.3297,0.3345,0.3404,0.3414,0.3476,0.3521,0.3597,0.3627,0.3676,0.3667,0.3685,0.369,0.3695,0.3698,0.3589,0.3686,0.3686,0.3686,0.3686,0.3686,0,0.3115,0.3143,0.319,0.3247,0.3289,0.3286,0.3332,0.3367,0.3421,0.3462,0.3507,0.3574,0.3629,0.3666,0.3723,0.3756,0.3759,0.377,0.3769,0.3776,0.3702,0.3686,0.3767,0.3767,0.3767,0.3767,0.3767,0.3767,0.3167,0.3233,0.3248,0.333,0.3358,0.3417,0.3444,0.348,0.3513,0.3587,0.3632,0.3655,0.3695,0.3755,0.3806,0.3816,0.3837,0.3849,0.3859,0.3789,0.3781,0.3773,0.3758,0.3853,0.3853,0.3929,0.393,0.393]},{"header":{"parameterUnit":"m.s-1","parameterCategory":1,"la1":30.2991,"la2":30.254,"lo1":-89.0895,"lo2":-89.0444,"dy":0.0017,"dx":0.0017,"nx":28,"ny":28,"refTime":"2025-11-17T09:00:00:Z","depth":0,"parameterNumber":3,"parameterNumberName":"V-component_of_WINDS"},"data":[0,0,0,0,0,0,0,0,0,0,0,0,0,0,0,0,0,0,0,0,0,0,0,0,0,0,0,0,0,0,0,0,0,0,0,0,0,0,0,0,0,0,0,0,0,0,0,0,0,0,0,0,0,0,0,0,0,0,-0.7733,-0.7733,0,-0.7779,-0.7779,-0.778,-0.7825,-0.7826,-0.7827,-0.7827,-0.7875,-0.7875,-0.7876,0,0,0,0,0,0,0,0,0,0,0,0,0,-0.7683,-0.7684,-0.7732,-0.7733,-0.7734,-0.7779,-0.7779,-0.778,-0.7825,-0.7826,-0.7827,-0.7827,-0.7874,-0.7875,-0.7876,0,0,0,0,0,0,0,0,0,0,0,0,0,-0.7715,-0.7684,-0.7732,-0.7762,-0.7765,-0.7779,-0.7779,-0.778,-0.7825,-0.7826,-0.7827,-0.7828,-0.7874,-0.7875,-0.7876,-0.7865,0,0,-0.7879,-0.788,0,0,0,0,0,0,0,0,-0.7713,-0.7716,-0.7757,-0.776,-0.7763,-0.7797,-0.778,-0.7809,-0.7825,-0.7802,-0.7827,-0.7828,-0.7848,-0.7851,-0.7858,-0.7867,-0.7869,-0.788,-0.788,-0.7881,-0.7881,0,0,0,0,0,0,0,-0.7711,-0.7715,-0.7751,-0.7757,-0.7761,-0.7773,-0.7778,-0.7785,-0.782,-0.7804,-0.7808,-0.7813,-0.785,-0.7857,-0.786,-0.787,-0.788,-0.788,-0.7881,-0.7882,-0.7872,-0.7871,0,0,0,0,0,0,-0.7704,-0.7713,-0.7749,-0.7752,-0.774,-0.7773,-0.7779,-0.7785,-0.782,-0.7826,-0.7812,-0.7815,-0.7855,-0.7858,-0.7861,-0.785,-0.7881,-0.7882,-0.7882,-0.7873,-0.7872,-0.7871,0,0,0,0,0,0,-0.7703,-0.7707,-0.7748,-0.7733,-0.7739,-0.7773,-0.778,-0.7786,-0.7793,-0.7825,-0.7832,-0.7812,-0.7856,-0.786,-0.7864,-0.7852,-0.7882,-0.7883,-0.7874,-0.7872,-0.7871,-0.7827,0,0,0,0,0,0,-0.7701,-0.7706,-0.7702,-0.7733,-0.774,-0.7749,-0.7779,-0.7786,-0.7795,-0.7799,-0.7828,-0.7833,-0.7857,-0.7862,-0.7865,-0.7854,-0.7884,-0.7875,-0.7873,-0.7871,-0.783,-0.7824,-0.782,0,0,0,0,0,-0.7699,-0.7688,-0.7702,-0.7706,-0.7736,-0.7748,-0.7752,-0.7779,-0.7793,-0.779,-0.7811,-0.7832,-0.7853,-0.7862,-0.7865,-0.7855,-0.7876,-0.7874,-0.7872,-0.7832,-0.7825,-0.782,0,0,0,0,0,0,-0.7655,-0.7692,-0.7708,-0.7706,-0.7724,-0.7756,-0.7752,-0.7771,-0.7785,-0.7788,-0.7821,-0.7827,-0.7827,-0.7842,-0.7851,-0.7846,-0.7868,-0.7866,-0.7836,-0.783,-0.7825,-0.7821,-0.7885,0,0,0,0,0,-0.7645,-0.7652,-0.7684,-0.768,-0.7688,-0.7718,-0.7724,-0.7744,-0.7763,-0.777,-0.7792,-0.7809,-0.782,-0.7826,-0.7838,-0.7833,-0.7839,-0.7827,-0.7822,-0.7818,-0.7816,-0.7814,-0.7809,-0.7864,-0.7864,-0.7864,0,0,-0.7624,-0.7646,-0.7648,-0.7671,-0.7687,-0.7693,-0.7724,-0.7729,-0.7734,-0.7771,-0.7776,-0.7792,-0.7814,-0.7813,-0.7814,-0.7825,-0.7803,-0.7816,-0.7812,-0.7812,-0.7812,-0.7806,-0.7802,-0.7863,-0.7863,-0.7863,0,0,-0.759,-0.7607,-0.7605,-0.762,-0.7643,-0.7663,-0.7663,-0.7692,-0.7704,-0.7709,-0.7737,-0.7744,-0.7761,-0.7776,-0.7785,-0.7756,-0.7777,-0.7759,-0.7733,-0.7731,-0.7726,-0.7723,-0.7712,-0.7707,-0.7758,-0.7757,-0.7757,0,-0.7561,-0.7571,-0.7601,-0.7604,-0.7614,-0.7648,-0.7646,-0.7659,-0.7685,-0.769,-0.7703,-0.7726,-0.7743,-0.7746,-0.7739,-0.7746,-0.7746,-0.7756,-0.7725,-0.7721,-0.7718,-0.7708,-0.7704,-0.7755,-0.7755,-0.7756,-0.7756,0,-0.7535,-0.7541,-0.7537,-0.7561,-0.757,-0.757,-0.76,-0.7606,-0.7624,-0.7643,-0.7648,-0.767,-0.7687,-0.7689,-0.7707,-0.7694,-0.77,-0.7719,-0.7741,-0.771,-0.7701,-0.7697,-0.7752,-0.7753,-0.7753,-0.7754,0,0,-0.7472,-0.7513,-0.751,-0.7522,-0.755,-0.7556,-0.7558,-0.7574,-0.7578,-0.7595,-0.7597,-0.7612,-0.7628,-0.7639,-0.766,-0.7658,-0.7633,-0.7676,-0.7677,-0.7667,-0.7619,-0.7604,-0.7599,-0.7647,-0.7646,-0.7646,-0.7617,0,-0.7442,-0.7448,-0.7474,-0.7472,-0.7479,-0.7512,-0.7514,-0.7531,-0.7549,-0.7557,-0.7577,-0.7587,-0.7609,-0.7615,-0.7615,-0.7636,-0.7623,-0.7639,-0.7649,-0.7649,-0.7641,-0.7594,-0.7579,-0.755,-0.7613,-0.7613,-0.7612,0,-0.7407,-0.7421,-0.7419,-0.7447,-0.7451,-0.7452,-0.7469,-0.7477,-0.7497,-0.751,-0.7523,-0.7546,-0.755,-0.7571,-0.7578,-0.7587,-0.7593,-0.7604,-0.7604,-0.7605,-0.7628,-0.7593,-0.7542,-0.7537,-0.7607,-0.7608,-0.7608,0,-0.736,-0.7379,-0.7381,-0.7389,-0.7422,-0.7422,-0.7436,-0.7458,-0.7465,-0.748,-0.7486,-0.7501,-0.7509,-0.752,-0.7547,-0.756,-0.755,-0.7574,-0.756,-0.756,-0.7556,-0.7555,-0.7503,-0.7561,-0.7561,-0.7562,-0.7562,0,-0.7323,-0.732,-0.736,-0.7361,-0.7359,-0.739,-0.7387,-0.7404,-0.7423,-0.7428,-0.7458,-0.7461,-0.7497,-0.7505,-0.7526,-0.7527,-0.7531,-0.7541,-0.7547,-0.7538,-0.7536,-0.7542,-0.7544,-0.756,-0.7561,-0.7561,-0.7561,0,-0.727,-0.7297,-0.73,-0.7331,-0.7339,-0.7336,-0.7363,-0.7364,-0.7385,-0.739,-0.7393,-0.7424,-0.7435,-0.7463,-0.7481,-0.7495,-0.749,-0.7501,-0.7483,-0.7486,-0.7471,-0.7472,-0.742,-0.7414,-0.7477,-0.7476,-0.7475,0,-0.7244,-0.7242,-0.7273,-0.7278,-0.729,-0.7298,-0.7307,-0.7337,-0.7345,-0.7368,-0.7367,-0.738,-0.7392,-0.7408,-0.7432,-0.7446,-0.7457,-0.7438,-0.7459,-0.745,-0.7455,-0.7454,-0.7454,-0.7432,-0.7431,-0.7431,-0.743,0,-0.7194,-0.7207,-0.7217,-0.7232,-0.7241,-0.7254,-0.727,-0.7272,-0.7307,-0.7313,-0.7325,-0.7334,-0.7352,-0.7365,-0.7382,-0.7397,-0.7419,-0.7423,-0.7421,-0.7411,-0.74,-0.7405,-0.7469,-0.7424,-0.7425,-0.7425,-0.7426,-0.7426,-0.7153,-0.7153,-0.7174,-0.7185,-0.72,-0.7213,-0.7216,-0.7236,-0.7246,-0.7263,-0.7281,-0.729,-0.7311,-0.7337,-0.735,-0.7358,-0.7369,-0.7366,-0.7365,-0.7363,-0.7359,-0.74,-0.7361,-0.7362,-0.7362,-0.7362,-0.7362,0,-0.7103,-0.7119,-0.7128,-0.7148,-0.7157,-0.7177,-0.7195,-0.72,-0.7208,-0.7226,-0.7237,-0.7249,-0.7261,-0.7287,-0.7302,-0.7303,-0.7313,-0.7305,-0.7305,-0.7308,-0.7348,-0.7348,-0.7297,-0.7297,-0.7297,-0.7297,-0.7297,-0.7297,-0.7079,-0.708,-0.7095,-0.7104,-0.712,-0.7129,-0.7137,-0.715,-0.7164,-0.7176,-0.7186,-0.7203,-0.7224,-0.724,-0.7252,-0.726,-0.7263,-0.7252,-0.7262,-0.7299,-0.7305,-0.7311,-0.7311,-0.7252,-0.7252,-0.7221,-0.7221,-0.722]}]]